Charlottetown, Prince Edward Island

5:28 AM AST on January 20, 2018 (GMT -0400)
Charlottetown

Weather History for CYYG - October, 2012

Change the Weather History Date:

Friday, October 12, 2012

  Actual Average Record
Temperature  
Mean Temperature 42 °F -  
Max Temperature 48 °F 50 °F 73 °F (2003)
Min Temperature 36 °F 35 °F 30 °F (2013)
Degree Days  
Heating Degree Days 23    
Moisture  
Dew Point 37 °F    
Average Humidity 78    
Maximum Humidity 100    
Minimum Humidity 54    
Precipitation  
Precipitation 0.28 in 0.15 in - ()
Sea Level Pressure  
Sea Level Pressure 29.92 in    
Wind  
Wind Speed 9 mph ()    
Max Wind Speed 20 mph    
Max Gust Speed 28 mph    
Visibility 12.1 miles    
Events Rain    
Averages and records for this station are not official NWS values.
T = Trace of Precipitation, MM = Missing Value Source: Averaged Metar Reports

Daily Weather History Graph

Daily Weather History Graph

Search for Another Location

Airport or City:

Trip Planner

Search our weather history database for the weather conditions in past years. The results will help you decide how hot, cold, wet, or windy it might be!

Date:

Astronomy

Oct. 12, 2012 Rise Set
Actual Time 7:26 AM ADT 6:30 PM ADT
Civil Twilight 6:56 AM ADT 7:00 PM ADT
Nautical Twilight 6:21 AM ADT 7:35 PM ADT
Astronomical Twilight 5:46 AM ADT 8:10 PM ADT
Moon 3:54 AM ADT (10/12) 4:45 PM ADT (10/12)
Length of Visible Light 12h 04m
Length of Day
11h 04m
Waning Crescent, 11% of the Moon is Illuminated
Oct 12
Waning Crescent
Oct 15
New
Oct 22
First Quarter
Oct 29
Full
Nov 6
Last Quarter

Hourly Weather History & Observations

Time (ADT) Temp. Windchill Dew Point Humidity Pressure Visibility Wind Dir Wind Speed Gust Speed Precip Events Conditions
12:00 AM 42.8 °F 35.4 °F 28.4 °F 57% 29.98 in 15.0 mi West 15.0 mph 20.7 mph N/A   Partly Cloudy
1:00 AM 41.0 °F 35.8 °F 30.2 °F 65% 30.00 in 15.0 mi WSW 8.1 mph - N/A   Partly Cloudy
3:00 AM 41 °F - 30 °F 54% 30.01 in 15 mi WSW 10.4 mph - -  
3:00 AM 41.0 °F 34.7 °F 30.2 °F 65% 30.01 in 15.0 mi WSW 10.4 mph - N/A   Clear
5:00 AM 41.0 °F 36.4 °F 30.2 °F 65% 30.01 in 15.0 mi WSW 6.9 mph - N/A   Scattered Clouds
6:00 AM 39.2 °F 35.9 °F 30.2 °F 70% 30.00 in 15.0 mi South 4.6 mph - N/A   Mostly Cloudy
7:00 AM 39.2 °F 35.0 °F 28.4 °F 65% 29.98 in 15.0 mi South 5.8 mph - N/A   Scattered Clouds
8:00 AM 39.2 °F 33.6 °F 32.0 °F 75% 29.96 in 15.0 mi South 8.1 mph - N/A   Scattered Clouds
9:00 AM 47 °F - 37 °F 58% 29.95 in 15 mi South 13.8 mph - -   Mostly Cloudy
9:00 AM 46.4 °F 40.4 °F 37.4 °F 71% 29.95 in 15.0 mi South 13.8 mph - N/A   Mostly Cloudy
9:10 AM 48.2 °F - 37.4 °F 66% 29.94 in 15.0 mi South 15.0 mph - N/A Rain Light Rain
10:00 AM 48.2 °F - 41.0 °F 76% 29.93 in 15.0 mi SSW 13.8 mph - N/A Rain Light Rain
11:00 AM 48.2 °F - 44.6 °F 87% 29.92 in 8.0 mi SW 9.2 mph 19.6 mph N/A Rain Light Rain
12:00 PM 48.2 °F - 44.6 °F 87% 29.89 in 8.0 mi SW 6.9 mph - N/A Rain Light Rain
12:49 PM 48.2 °F - 46.4 °F 93% 29.87 in 5.0 mi WNW 6.9 mph - N/A Rain Light Rain
1:00 PM 46.4 °F 41.9 °F 46.4 °F 100% 29.86 in 4.0 mi West 9.2 mph - N/A Rain Heavy Rain
1:43 PM 48.2 °F - 44.6 °F 87% 29.84 in 8.0 mi West 11.5 mph 18.4 mph N/A Rain Light Rain
2:00 PM 46.4 °F 39.0 °F 42.8 °F 87% 29.84 in 10.0 mi WNW 19.6 mph 27.6 mph N/A Rain Light Rain
3:00 PM 44 °F - 41 °F 84% 29.85 in 7 mi WNW 12.7 mph - - Rain Light Rain
3:00 PM 42.8 °F 36.6 °F 41.0 °F 93% 29.85 in 8.0 mi WNW 11.5 mph 20.7 mph N/A Rain Light Rain
4:00 PM 42.8 °F 36.2 °F 39.2 °F 87% 29.84 in 8.0 mi WNW 12.7 mph 18.4 mph N/A Rain Light Rain
5:00 PM 42.8 °F 38.0 °F 41.0 °F 93% 29.85 in 15.0 mi West 8.1 mph - N/A Rain Light Rain
6:00 PM 42.8 °F 39.3 °F 41.0 °F 93% 29.86 in 10.0 mi West 5.8 mph - N/A Rain Light Rain
8:00 PM 41.0 °F 35.8 °F 37.4 °F 87% 29.90 in 10.0 mi WNW 8.1 mph - N/A Rain Light Rain
9:00 PM 41.0 °F 35.8 °F 35.6 °F 81% 29.91 in 15.0 mi WNW 8.1 mph - N/A   Overcast
10:00 PM 39.2 °F 33.0 °F 35.6 °F 87% 29.92 in 15.0 mi WNW 9.2 mph - N/A   Mostly Cloudy
11:00 PM 39.2 °F 33.0 °F 32.0 °F 75% 29.93 in 15.0 mi WNW 9.2 mph 18.4 mph N/A   Scattered Clouds